Location: Charlottesville
(38.0290°N, 78.4770°W)
Time: 05:46:27
(UTC-04:00)

Tiangong 1 - Pass Details

Date: 13 October 2017
Orbit: 292 x 319 km, 42.8° (Epoch: 22 October)

Event Time Altitude Azimuth Distance (km) Brightness Sun altitude
Rises 19:53:14 0° 293° (WNW) 2,042 6.1 -15.5°
Reaches altitude 10° 19:55:15 10° 298° (WNW) 1,206 4.6 -15.9°
Maximum altitude 19:57:54 53° 18° (NNE) 386 0.9 -16.4°
Enters shadow 19:58:02 52° 30° (NNE) 389 0.8 -16.4°
